weather.gov     
National Weather Service

Terminal Aerodrome Forecast
NWS Homepage
This page is being discontinued on March 12, 2014.
The same data is available at this site. Please update your bookmarks.
Thank you, and we apologize for the inconvenience.
Please send an email to SR-SRH.Webmaster@noaa.gov with any concerns.


Current Version
Previous Version:    01  02  03  04  05  06  07  08  09  10  11  12  13  14  15  16  17  18  19  20  21  22  23  24  25  26  27  28  29  30  
   31  32  33  34  35  
[Printable]
901
FTUS43 KGRB 212300
TAFATW
TAF
KATW 212332Z 2200/2224 16011KT 6SM BR SCT012 OVC035
      TEMPO 2200/2202 2SM -RASN BR BKN012
     FM220200 16010KT 4SM BR OVC012
      TEMPO 2202/2206 2SM -SNDZ BR BKN008
     FM220600 15009KT 3SM BR OVC007
     FM221600 12008KT 5SM BR SCT008 OVC015=


U.S. Dept. of Commerce
NOAA National Weather Service
1325 East West Highway
Silver Spring, MD 20910
E-mail: w-nws.webmaster@noaa.gov
Page last modified: May 16, 2007
NATIONAL WEATHER SERVICE: for Safety, for Work, for Fun - FOR LIFE